Retour au catalogue

STARLINK-5501

ActifCommunicationsVLEO
NORAD 55648·PAYLOAD·🇺🇸 United States

Lancé Feb 17, 2023 depuis Vandenberg Space Force Base

Loading…

Prochains Passages (prochaines 24 heures)

TLE

FraisSource: CelesTrak SupGP

Époque: Sep 15, 2026, 01:51 UTC

1 55648C 23021W   26258.07756944 -.00050631  00000+0 -42438-2 0  2588
2 55648  70.0010  66.9786 0002784 269.3227 283.2416 14.98350275    13

Suivez STARLINK-5501 en temps réel avec AllMySat

Download on the App Store